Year,Month,Day,Hour,Minute,Value (Times are PST for temperature in C)
2010,08,21,00,00,11.80
2010,08,21,00,01,11.80
2010,08,21,00,02,11.80
2010,08,21,00,03,11.80
2010,08,21,00,04,11.80
2010,08,21,00,05,11.80
2010,08,21,00,06,11.80
2010,08,21,00,07,11.70
2010,08,21,00,08,11.70
2010,08,21,00,09,11.70
2010,08,21,00,10,11.70
2010,08,21,00,11,11.70
2010,08,21,00,12,11.70
2010,08,21,00,13,11.70
2010,08,21,00,14,11.70
2010,08,21,00,15,11.70
2010,08,21,00,16,11.60
2010,08,21,00,17,11.60
2010,08,21,00,18,11.60
2010,08,21,00,19,11.60
2010,08,21,00,20,11.60
2010,08,21,00,21,11.60
2010,08,21,00,22,11.60
2010,08,21,00,23,11.60
2010,08,21,00,24,11.60
2010,08,21,00,25,11.60
2010,08,21,00,26,11.60
2010,08,21,00,27,11.60
2010,08,21,00,28,11.60
2010,08,21,00,29,11.60
2010,08,21,00,30,11.60
2010,08,21,00,31,11.60
2010,08,21,00,32,11.60
2010,08,21,00,33,11.60
2010,08,21,00,34,11.60
2010,08,21,00,35,11.60
2010,08,21,00,36,11.60
2010,08,21,00,37,11.60
2010,08,21,00,38,11.50
2010,08,21,00,39,11.40
2010,08,21,00,40,11.40
2010,08,21,00,41,11.40
2010,08,21,00,42,11.40
2010,08,21,00,43,11.40
2010,08,21,00,44,11.40
2010,08,21,00,45,11.40
2010,08,21,00,46,11.40
2010,08,21,00,47,11.40
2010,08,21,00,48,11.40
2010,08,21,00,49,11.40
2010,08,21,00,50,11.40
2010,08,21,00,51,11.40
2010,08,21,00,52,11.40
2010,08,21,00,53,11.30
2010,08,21,00,54,11.30
2010,08,21,00,55,11.30
2010,08,21,00,56,11.30
2010,08,21,00,57,11.30
2010,08,21,00,58,11.30
2010,08,21,00,59,11.30
2010,08,21,01,00,11.30
2010,08,21,01,01,11.30
2010,08,21,01,02,11.30
2010,08,21,01,03,11.30
2010,08,21,01,04,11.30
2010,08,21,01,05,11.30
2010,08,21,01,06,11.30
2010,08,21,01,07,11.20
2010,08,21,01,08,11.20
2010,08,21,01,09,11.20
2010,08,21,01,10,11.20
2010,08,21,01,11,11.20
2010,08,21,01,12,11.20
2010,08,21,01,13,11.20
2010,08,21,01,14,11.20
2010,08,21,01,15,11.20
2010,08,21,01,16,11.20
2010,08,21,01,17,11.20
2010,08,21,01,18,11.20
2010,08,21,01,19,11.10
2010,08,21,01,20,11.10
2010,08,21,01,21,11.10
2010,08,21,01,22,11.10
2010,08,21,01,23,11.10
2010,08,21,01,24,11.10
2010,08,21,01,25,11.10
2010,08,21,01,26,11.10
2010,08,21,01,27,11.10
2010,08,21,01,28,11.10
2010,08,21,01,29,11.10
2010,08,21,01,30,11.10
2010,08,21,01,31,11.10
2010,08,21,01,32,11.10
2010,08,21,01,33,11.10
2010,08,21,01,34,11.10
2010,08,21,01,35,11.10
2010,08,21,01,36,11.10
2010,08,21,01,37,11.10
2010,08,21,01,38,11.10
2010,08,21,01,39,11.10
2010,08,21,01,40,11.10
2010,08,21,01,41,11.10
2010,08,21,01,42,11.10
2010,08,21,01,43,11.10
2010,08,21,01,44,11.10
2010,08,21,01,45,11.10
2010,08,21,01,46,11.10
2010,08,21,01,47,11.10
2010,08,21,01,48,11.10
2010,08,21,01,49,11.10
2010,08,21,01,50,11.10
2010,08,21,01,51,11.10
2010,08,21,01,52,11.10
2010,08,21,01,53,11.10
2010,08,21,01,54,10.90
2010,08,21,01,55,10.90
2010,08,21,01,56,10.90
2010,08,21,01,57,10.90
2010,08,21,01,58,10.90
2010,08,21,01,59,10.90
2010,08,21,02,00,10.90
2010,08,21,02,01,10.90
2010,08,21,02,02,10.90
2010,08,21,02,03,10.90
2010,08,21,02,04,10.90
2010,08,21,02,05,10.90
2010,08,21,02,06,10.90
2010,08,21,02,07,10.90
2010,08,21,02,08,10.80
2010,08,21,02,09,10.80
2010,08,21,02,10,10.80
2010,08,21,02,11,10.80
2010,08,21,02,12,10.80
2010,08,21,02,13,10.80
2010,08,21,02,14,10.80
2010,08,21,02,15,10.80
2010,08,21,02,16,10.80
2010,08,21,02,17,10.80
2010,08,21,02,18,10.80
2010,08,21,02,19,10.80
2010,08,21,02,20,10.90
2010,08,21,02,21,10.90
2010,08,21,02,22,10.90
2010,08,21,02,23,11.00
2010,08,21,02,24,11.10
2010,08,21,02,25,11.10
2010,08,21,02,26,11.10
2010,08,21,02,27,11.10
2010,08,21,02,28,11.10
2010,08,21,02,29,11.10
2010,08,21,02,30,11.10
2010,08,21,02,31,11.10
2010,08,21,02,32,11.10
2010,08,21,02,33,11.10
2010,08,21,02,34,11.10
2010,08,21,02,35,11.10
2010,08,21,02,36,11.10
2010,08,21,02,37,11.10
2010,08,21,02,38,11.10
2010,08,21,02,39,11.10
2010,08,21,02,40,11.10
2010,08,21,02,41,11.10
2010,08,21,02,42,11.10
2010,08,21,02,43,11.10
2010,08,21,02,44,11.10
2010,08,21,02,45,11.10
2010,08,21,02,46,10.90
2010,08,21,02,47,10.90
2010,08,21,02,48,10.90
2010,08,21,02,49,10.90
2010,08,21,02,50,10.90
2010,08,21,02,51,10.90
2010,08,21,02,52,10.90
2010,08,21,02,53,10.90
2010,08,21,02,54,10.80
2010,08,21,02,55,10.80
2010,08,21,02,56,10.80
2010,08,21,02,57,10.70
2010,08,21,02,58,10.70
2010,08,21,02,59,10.70
2010,08,21,03,00,10.70
2010,08,21,03,01,10.60
2010,08,21,03,02,10.60
2010,08,21,03,03,10.60
2010,08,21,03,04,10.60
2010,08,21,03,05,10.60
2010,08,21,03,06,10.60
2010,08,21,03,07,10.40
2010,08,21,03,08,10.40
2010,08,21,03,09,10.40
2010,08,21,03,10,10.40
2010,08,21,03,11,10.40
2010,08,21,03,12,10.40
2010,08,21,03,13,10.30
2010,08,21,03,14,10.30
2010,08,21,03,15,10.30
2010,08,21,03,16,10.30
2010,08,21,03,17,10.30
2010,08,21,03,18,10.30
2010,08,21,03,19,10.20
2010,08,21,03,20,10.20
2010,08,21,03,21,10.20
2010,08,21,03,22,10.20
2010,08,21,03,23,10.20
2010,08,21,03,24,10.10
2010,08,21,03,25,10.10
2010,08,21,03,26,10.10
2010,08,21,03,27,10.10
2010,08,21,03,28,10.10
2010,08,21,03,29,10.00
2010,08,21,03,30,9.90
2010,08,21,03,31,9.90
2010,08,21,03,32,9.90
2010,08,21,03,33,9.90
2010,08,21,03,34,9.90
2010,08,21,03,35,9.90
2010,08,21,03,36,9.90
2010,08,21,03,37,9.90
2010,08,21,03,38,9.80
2010,08,21,03,39,9.80
2010,08,21,03,40,9.80
2010,08,21,03,41,9.80
2010,08,21,03,42,9.80
2010,08,21,03,43,9.80
2010,08,21,03,44,9.80
2010,08,21,03,45,9.80
2010,08,21,03,46,9.80
2010,08,21,03,47,9.80
2010,08,21,03,48,9.80
2010,08,21,03,49,9.80
2010,08,21,03,50,9.80
2010,08,21,03,51,9.90
2010,08,21,03,52,9.90
2010,08,21,03,53,9.90
2010,08,21,03,54,9.80
2010,08,21,03,55,9.80
2010,08,21,03,56,9.80
2010,08,21,03,57,9.80
2010,08,21,03,58,9.80
2010,08,21,03,59,9.80
2010,08,21,04,00,9.80
2010,08,21,04,01,9.80
2010,08,21,04,02,9.80
2010,08,21,04,03,9.80
2010,08,21,04,04,9.80
2010,08,21,04,05,9.80
2010,08,21,04,06,9.80
2010,08,21,04,07,9.80
2010,08,21,04,08,9.80
2010,08,21,04,09,9.80
2010,08,21,04,10,9.70
2010,08,21,04,11,9.70
2010,08,21,04,12,9.70
2010,08,21,04,13,9.70
2010,08,21,04,14,9.70
2010,08,21,04,15,9.70
2010,08,21,04,16,9.70
2010,08,21,04,17,9.70
2010,08,21,04,18,9.70
2010,08,21,04,19,9.70
2010,08,21,04,20,9.70
2010,08,21,04,21,9.70
2010,08,21,04,22,9.70
2010,08,21,04,23,9.70
2010,08,21,04,24,9.70
2010,08,21,04,25,9.70
2010,08,21,04,26,9.70
2010,08,21,04,27,9.70
2010,08,21,04,28,9.70
2010,08,21,04,29,9.70
2010,08,21,04,30,9.60
2010,08,21,04,31,9.60
2010,08,21,04,32,9.60
2010,08,21,04,33,9.60
2010,08,21,04,34,9.60
2010,08,21,04,35,9.60
2010,08,21,04,36,9.60
2010,08,21,04,37,9.60
2010,08,21,04,38,9.50
2010,08,21,04,39,9.50
2010,08,21,04,40,9.50
2010,08,21,04,41,9.50
2010,08,21,04,42,9.50
2010,08,21,04,43,9.50
2010,08,21,04,44,9.50
2010,08,21,04,45,9.40
2010,08,21,04,46,9.40
2010,08,21,04,47,9.40
2010,08,21,04,48,9.40
2010,08,21,04,49,9.40
2010,08,21,04,50,9.40
2010,08,21,04,51,9.40
2010,08,21,04,52,9.50
2010,08,21,04,53,9.60
2010,08,21,04,54,9.60
2010,08,21,04,55,9.60
2010,08,21,04,56,9.60
2010,08,21,04,57,9.60
2010,08,21,04,58,9.60
2010,08,21,04,59,9.60
2010,08,21,05,00,9.60
2010,08,21,05,01,9.60
2010,08,21,05,02,9.60
2010,08,21,05,03,9.60
2010,08,21,05,04,9.50
2010,08,21,05,05,9.50
2010,08,21,05,06,9.50
2010,08,21,05,07,9.50
2010,08,21,05,08,9.50
2010,08,21,05,09,9.50
2010,08,21,05,10,9.50
2010,08,21,05,11,9.50
2010,08,21,05,12,9.50
2010,08,21,05,13,9.50
2010,08,21,05,14,9.50
2010,08,21,05,15,9.50
2010,08,21,05,16,9.40
2010,08,21,05,17,9.40
2010,08,21,05,18,9.40
2010,08,21,05,19,9.40
2010,08,21,05,20,9.40
2010,08,21,05,21,9.40
2010,08,21,05,22,9.40
2010,08,21,05,23,9.40
2010,08,21,05,24,9.40
2010,08,21,05,25,9.40
2010,08,21,05,26,9.40
2010,08,21,05,27,9.40
2010,08,21,05,28,9.40
2010,08,21,05,29,9.40
2010,08,21,05,30,9.40
2010,08,21,05,31,9.40
2010,08,21,05,32,9.40
2010,08,21,05,33,9.40
2010,08,21,05,34,9.30
2010,08,21,05,35,9.30
2010,08,21,05,36,9.30
2010,08,21,05,37,9.30
2010,08,21,05,38,9.30
2010,08,21,05,39,9.30
2010,08,21,05,40,9.30
2010,08,21,05,41,9.30
2010,08,21,05,42,9.20
2010,08,21,05,43,9.20
2010,08,21,05,44,9.20
2010,08,21,05,45,9.20
2010,08,21,05,46,9.20
2010,08,21,05,47,9.20
2010,08,21,05,48,9.20
2010,08,21,05,49,9.20
2010,08,21,05,50,9.20
2010,08,21,05,51,9.20
2010,08,21,05,52,9.20
2010,08,21,05,53,9.20
2010,08,21,05,54,9.20
2010,08,21,05,55,9.20
2010,08,21,05,56,9.20
2010,08,21,05,57,9.20
2010,08,21,05,58,9.20
2010,08,21,05,59,9.20
2010,08,21,06,00,9.20
2010,08,21,06,01,9.20
2010,08,21,06,02,9.20
2010,08,21,06,03,9.20
2010,08,21,06,04,9.20
2010,08,21,06,05,9.20
2010,08,21,06,06,9.20
2010,08,21,06,07,9.20
2010,08,21,06,08,9.20
2010,08,21,06,09,9.20
2010,08,21,06,10,9.20
2010,08,21,06,11,9.10
2010,08,21,06,12,9.10
2010,08,21,06,13,9.10
2010,08,21,06,14,9.10
2010,08,21,06,15,9.10
2010,08,21,06,16,9.10
2010,08,21,06,17,9.10
2010,08,21,06,18,9.10
2010,08,21,06,19,9.10
2010,08,21,06,20,9.10
2010,08,21,06,21,9.10
2010,08,21,06,22,9.00
2010,08,21,06,23,9.00
2010,08,21,06,24,9.00
2010,08,21,06,25,9.10
2010,08,21,06,26,9.10
2010,08,21,06,27,9.10
2010,08,21,06,28,9.10
2010,08,21,06,29,9.00
2010,08,21,06,30,9.00
2010,08,21,06,31,9.00
2010,08,21,06,32,9.00
2010,08,21,06,33,9.10
2010,08,21,06,34,9.10
2010,08,21,06,35,9.10
2010,08,21,06,36,9.10
2010,08,21,06,37,9.10
2010,08,21,06,38,9.00
2010,08,21,06,39,9.00
2010,08,21,06,40,9.00
2010,08,21,06,41,9.00
2010,08,21,06,42,9.10
2010,08,21,06,43,9.10
2010,08,21,06,44,9.10
2010,08,21,06,45,9.10
2010,08,21,06,46,9.10
2010,08,21,06,47,9.10
2010,08,21,06,48,9.20
2010,08,21,06,49,9.20
2010,08,21,06,50,9.20
2010,08,21,06,51,9.30
2010,08,21,06,52,9.30
2010,08,21,06,53,9.40
2010,08,21,06,54,9.40
2010,08,21,06,55,9.50
2010,08,21,06,56,9.50
2010,08,21,06,57,9.50
2010,08,21,06,58,9.60
2010,08,21,06,59,9.70
2010,08,21,07,00,9.70
2010,08,21,07,01,9.70
2010,08,21,07,02,9.70
2010,08,21,07,03,9.70
2010,08,21,07,04,9.70
2010,08,21,07,05,9.70
2010,08,21,07,06,9.70
2010,08,21,07,07,9.70
2010,08,21,07,08,9.70
2010,08,21,07,09,9.70
2010,08,21,07,10,9.70
2010,08,21,07,11,9.70
2010,08,21,07,12,9.70
2010,08,21,07,13,9.80
2010,08,21,07,14,9.90
2010,08,21,07,15,9.90
2010,08,21,07,16,9.90
2010,08,21,07,17,10.00
2010,08,21,07,18,10.10
2010,08,21,07,19,10.10
2010,08,21,07,20,10.20
2010,08,21,07,21,10.20
2010,08,21,07,22,10.30
2010,08,21,07,23,10.30
2010,08,21,07,24,10.30
2010,08,21,07,25,10.40
2010,08,21,07,26,10.40
2010,08,21,07,27,10.40
2010,08,21,07,28,10.40
2010,08,21,07,29,10.50
2010,08,21,07,30,10.60
2010,08,21,07,31,10.60
2010,08,21,07,32,10.60
2010,08,21,07,33,10.70
2010,08,21,07,34,10.70
2010,08,21,07,35,10.80
2010,08,21,07,36,10.90
2010,08,21,07,37,10.90
2010,08,21,07,38,11.10
2010,08,21,07,39,11.20
2010,08,21,07,40,11.30
2010,08,21,07,41,11.40
2010,08,21,07,42,11.60
2010,08,21,07,43,11.70
2010,08,21,07,44,11.80
2010,08,21,07,45,11.80
2010,08,21,07,46,12.00
2010,08,21,07,47,12.00
2010,08,21,07,48,12.10
2010,08,21,07,49,12.20
2010,08,21,07,50,12.30
2010,08,21,07,51,12.30
2010,08,21,07,52,12.30
2010,08,21,07,53,12.40
2010,08,21,07,54,12.40
2010,08,21,07,55,12.50
2010,08,21,07,56,12.50
2010,08,21,07,57,12.50
2010,08,21,07,58,12.60
2010,08,21,07,59,12.60
2010,08,21,08,00,12.60
2010,08,21,08,01,12.70
2010,08,21,08,02,12.70
2010,08,21,08,03,12.80
2010,08,21,08,04,12.80
2010,08,21,08,05,12.80
2010,08,21,08,06,12.80
2010,08,21,08,07,12.80
2010,08,21,08,08,12.90
2010,08,21,08,09,12.90
2010,08,21,08,10,13.00
2010,08,21,08,11,13.00
2010,08,21,08,12,13.10
2010,08,21,08,13,13.10
2010,08,21,08,14,13.20
2010,08,21,08,15,13.20
2010,08,21,08,16,13.20
2010,08,21,08,17,13.30
2010,08,21,08,18,13.30
2010,08,21,08,19,13.30
2010,08,21,08,20,13.40
2010,08,21,08,21,13.40
2010,08,21,08,22,13.50
2010,08,21,08,23,13.50
2010,08,21,08,24,13.50
2010,08,21,08,25,13.60
2010,08,21,08,26,13.60
2010,08,21,08,27,13.60
2010,08,21,08,28,13.60
2010,08,21,08,29,13.60
2010,08,21,08,30,13.60
2010,08,21,08,31,13.70
2010,08,21,08,32,13.70
2010,08,21,08,33,13.70
2010,08,21,08,34,13.70
2010,08,21,08,35,13.70
2010,08,21,08,36,13.70
2010,08,21,08,37,13.80
2010,08,21,08,38,13.90
2010,08,21,08,39,14.00
2010,08,21,08,40,14.10
2010,08,21,08,41,14.20
2010,08,21,08,42,14.30
2010,08,21,08,43,14.50
2010,08,21,08,44,14.60
2010,08,21,08,45,14.70
2010,08,21,08,46,14.70
2010,08,21,08,47,14.80
2010,08,21,08,48,14.90
2010,08,21,08,49,15.00
2010,08,21,08,50,15.10
2010,08,21,08,51,15.30
2010,08,21,08,52,15.30
2010,08,21,08,53,15.40
2010,08,21,08,54,15.50
2010,08,21,08,55,15.50
2010,08,21,08,56,15.60
2010,08,21,08,57,15.70
2010,08,21,08,58,15.70
2010,08,21,08,59,15.70
2010,08,21,09,00,15.80
2010,08,21,09,01,15.80
2010,08,21,09,02,15.80
2010,08,21,09,03,15.80
2010,08,21,09,04,15.90
2010,08,21,09,05,15.90
2010,08,21,09,06,16.00
2010,08,21,09,07,16.10
2010,08,21,09,08,16.10
2010,08,21,09,09,16.10
2010,08,21,09,10,16.10
2010,08,21,09,11,16.10
2010,08,21,09,12,16.10
2010,08,21,09,13,16.10
2010,08,21,09,14,16.20
2010,08,21,09,15,16.20
2010,08,21,09,16,16.30
2010,08,21,09,17,16.40
2010,08,21,09,18,16.40
2010,08,21,09,19,16.50
2010,08,21,09,20,16.60
2010,08,21,09,21,16.70
2010,08,21,09,22,16.70
2010,08,21,09,23,16.80
2010,08,21,09,24,16.90
2010,08,21,09,25,16.90
2010,08,21,09,26,16.90
2010,08,21,09,27,16.90
2010,08,21,09,28,17.00
2010,08,21,09,29,17.10
2010,08,21,09,30,17.20
2010,08,21,09,31,17.30
2010,08,21,09,32,17.30
2010,08,21,09,33,17.30
2010,08,21,09,34,17.30
2010,08,21,09,35,17.40
2010,08,21,09,36,17.40
2010,08,21,09,37,17.40
2010,08,21,09,38,17.50
2010,08,21,09,39,17.60
2010,08,21,09,40,17.60
2010,08,21,09,41,17.60
2010,08,21,09,42,17.50
2010,08,21,09,43,17.50
2010,08,21,09,44,17.40
2010,08,21,09,45,17.40
2010,08,21,09,46,17.40
2010,08,21,09,47,17.50
2010,08,21,09,48,17.50
2010,08,21,09,49,17.50
2010,08,21,09,50,17.60
2010,08,21,09,51,17.60
2010,08,21,09,52,17.60
2010,08,21,09,53,17.60
2010,08,21,09,54,17.60
2010,08,21,09,55,17.60
2010,08,21,09,56,17.70
2010,08,21,09,57,17.70
2010,08,21,09,58,17.70
2010,08,21,09,59,17.70
2010,08,21,10,00,17.80
2010,08,21,10,01,17.90
2010,08,21,10,02,18.00
2010,08,21,10,03,18.10
2010,08,21,10,04,18.10
2010,08,21,10,05,18.10
2010,08,21,10,06,18.20
2010,08,21,10,07,18.20
2010,08,21,10,08,18.20
2010,08,21,10,09,18.20
2010,08,21,10,10,18.10
2010,08,21,10,11,18.10
2010,08,21,10,12,18.10
2010,08,21,10,13,18.10
2010,08,21,10,14,18.20
2010,08,21,10,15,18.20
2010,08,21,10,16,18.20
2010,08,21,10,17,18.20
2010,08,21,10,18,18.20
2010,08,21,10,19,18.30
2010,08,21,10,20,18.40
2010,08,21,10,21,18.50
2010,08,21,10,22,18.50
2010,08,21,10,23,18.60
2010,08,21,10,24,18.70
2010,08,21,10,25,18.70
2010,08,21,10,26,18.60
2010,08,21,10,27,18.60
2010,08,21,10,28,18.60
2010,08,21,10,29,18.60
2010,08,21,10,30,18.60
2010,08,21,10,31,18.60
2010,08,21,10,32,18.50
2010,08,21,10,33,18.50
2010,08,21,10,34,18.50
2010,08,21,10,35,18.50
2010,08,21,10,36,18.50
2010,08,21,10,37,18.50
2010,08,21,10,38,18.40
2010,08,21,10,39,18.40
2010,08,21,10,40,18.50
2010,08,21,10,41,18.60
2010,08,21,10,42,18.60
2010,08,21,10,43,18.60
2010,08,21,10,44,18.60
2010,08,21,10,45,18.70
2010,08,21,10,46,18.80
2010,08,21,10,47,18.70
2010,08,21,10,48,18.70
2010,08,21,10,49,18.70
2010,08,21,10,50,18.70
2010,08,21,10,51,18.80
2010,08,21,10,52,18.80
2010,08,21,10,53,18.90
2010,08,21,10,54,18.90
2010,08,21,10,55,18.90
2010,08,21,10,56,18.90
2010,08,21,10,57,18.90
2010,08,21,10,58,18.80
2010,08,21,10,59,18.80
2010,08,21,11,00,18.80
2010,08,21,11,01,18.80
2010,08,21,11,02,18.80
2010,08,21,11,03,18.70
2010,08,21,11,04,18.70
2010,08,21,11,05,18.80
2010,08,21,11,06,18.90
2010,08,21,11,07,18.90
2010,08,21,11,08,18.90
2010,08,21,11,09,18.90
2010,08,21,11,10,18.90
2010,08,21,11,11,18.90
2010,08,21,11,12,18.90
2010,08,21,11,13,18.90
2010,08,21,11,14,18.90
2010,08,21,11,15,18.90
2010,08,21,11,16,18.90
2010,08,21,11,17,19.10
2010,08,21,11,18,18.90
2010,08,21,11,19,18.90
2010,08,21,11,20,18.90
2010,08,21,11,21,19.00
2010,08,21,11,22,19.10
2010,08,21,11,23,19.10
2010,08,21,11,24,19.10
2010,08,21,11,25,19.10
2010,08,21,11,26,19.10
2010,08,21,11,27,19.10
2010,08,21,11,28,19.20
2010,08,21,11,29,19.10
2010,08,21,11,30,18.90
2010,08,21,11,31,18.80
2010,08,21,11,32,18.80
2010,08,21,11,33,18.80
2010,08,21,11,34,18.80
2010,08,21,11,35,18.90
2010,08,21,11,36,19.00
2010,08,21,11,37,19.10
2010,08,21,11,38,19.30
2010,08,21,11,39,19.20
2010,08,21,11,40,19.10
2010,08,21,11,41,19.10
2010,08,21,11,42,19.10
2010,08,21,11,43,19.00
2010,08,21,11,44,19.10
2010,08,21,11,45,19.10
2010,08,21,11,46,19.10
2010,08,21,11,47,19.00
2010,08,21,11,48,18.90
2010,08,21,11,49,19.00
2010,08,21,11,50,19.10
2010,08,21,11,51,19.00
2010,08,21,11,52,19.00
2010,08,21,11,53,19.10
2010,08,21,11,54,19.10
2010,08,21,11,55,19.10
2010,08,21,11,56,19.10
2010,08,21,11,57,19.10
2010,08,21,11,58,19.10
2010,08,21,11,59,19.00
2010,08,21,12,00,19.10
2010,08,21,12,01,19.10
2010,08,21,12,02,19.10
2010,08,21,12,03,19.00
2010,08,21,12,04,18.90
2010,08,21,12,05,18.90
2010,08,21,12,06,18.80
2010,08,21,12,07,18.70
2010,08,21,12,08,18.80
2010,08,21,12,09,18.80
2010,08,21,12,10,18.90
2010,08,21,12,11,18.90
2010,08,21,12,12,18.90
2010,08,21,12,13,18.90
2010,08,21,12,14,18.90
2010,08,21,12,15,18.90
2010,08,21,12,16,18.90
2010,08,21,12,17,18.90
2010,08,21,12,18,18.90
2010,08,21,12,19,19.00
2010,08,21,12,20,19.10
2010,08,21,12,21,19.20
2010,08,21,12,22,19.20
2010,08,21,12,23,19.20
2010,08,21,12,24,19.10
2010,08,21,12,25,19.00
2010,08,21,12,26,18.80
2010,08,21,12,27,18.80
2010,08,21,12,28,18.80
2010,08,21,12,29,18.90
2010,08,21,12,30,18.80
2010,08,21,12,31,18.80
2010,08,21,12,32,18.90
2010,08,21,12,33,19.00
2010,08,21,12,34,19.10
2010,08,21,12,35,19.10
2010,08,21,12,36,19.10
2010,08,21,12,37,19.10
2010,08,21,12,38,19.10
2010,08,21,12,39,19.00
2010,08,21,12,40,19.10
2010,08,21,12,41,19.10
2010,08,21,12,42,19.30
2010,08,21,12,43,19.40
2010,08,21,12,44,19.50
2010,08,21,12,45,19.60
2010,08,21,12,46,19.70
2010,08,21,12,47,19.80
2010,08,21,12,48,19.80
2010,08,21,12,49,19.70
2010,08,21,12,50,19.70
2010,08,21,12,51,19.60
2010,08,21,12,52,19.60
2010,08,21,12,53,19.50
2010,08,21,12,54,19.60
2010,08,21,12,55,19.60
2010,08,21,12,56,19.60
2010,08,21,12,57,19.50
2010,08,21,12,58,19.50
2010,08,21,12,59,19.60
2010,08,21,13,00,19.60
2010,08,21,13,01,19.70
2010,08,21,13,02,19.70
2010,08,21,13,03,19.70
2010,08,21,13,04,19.80
2010,08,21,13,05,19.90
2010,08,21,13,06,19.90
2010,08,21,13,07,19.90
2010,08,21,13,08,19.90
2010,08,21,13,09,19.90
2010,08,21,13,10,19.80
2010,08,21,13,11,19.70
2010,08,21,13,12,19.60
2010,08,21,13,13,19.70
2010,08,21,13,14,19.60
2010,08,21,13,15,19.70
2010,08,21,13,16,19.60
2010,08,21,13,17,19.70
2010,08,21,13,18,19.70
2010,08,21,13,19,19.90
2010,08,21,13,20,19.90
2010,08,21,13,21,19.90
2010,08,21,13,22,20.00
2010,08,21,13,23,20.10
2010,08,21,13,24,20.10
2010,08,21,13,25,20.10
2010,08,21,13,26,20.10
2010,08,21,13,27,20.00
2010,08,21,13,28,19.90
2010,08,21,13,29,19.80
2010,08,21,13,30,19.70
2010,08,21,13,31,19.50
2010,08,21,13,32,19.30
2010,08,21,13,33,19.30
2010,08,21,13,34,19.40
2010,08,21,13,35,19.40
2010,08,21,13,36,19.40
2010,08,21,13,37,19.40
2010,08,21,13,38,19.50
2010,08,21,13,39,19.50
2010,08,21,13,40,19.60
2010,08,21,13,41,19.60
2010,08,21,13,42,19.60
2010,08,21,13,43,19.60
2010,08,21,13,44,19.80
2010,08,21,13,45,19.80
2010,08,21,13,46,19.80
2010,08,21,13,47,19.70
2010,08,21,13,48,19.70
2010,08,21,13,49,19.60
2010,08,21,13,50,19.50
2010,08,21,13,51,19.60
2010,08,21,13,52,19.60
2010,08,21,13,53,19.60
2010,08,21,13,54,19.60
2010,08,21,13,55,19.40
2010,08,21,13,56,19.30
2010,08,21,13,57,19.30
2010,08,21,13,58,19.20
2010,08,21,13,59,19.20
2010,08,21,14,00,19.30
2010,08,21,14,01,19.40
2010,08,21,14,02,19.50
2010,08,21,14,03,19.60
2010,08,21,14,04,19.70
2010,08,21,14,05,19.70
2010,08,21,14,06,19.60
2010,08,21,14,07,19.50
2010,08,21,14,08,19.50
2010,08,21,14,09,19.50
2010,08,21,14,10,19.50
2010,08,21,14,11,19.50
2010,08,21,14,12,19.50
2010,08,21,14,13,19.40
2010,08,21,14,14,19.30
2010,08,21,14,15,19.30
2010,08,21,14,16,19.30
2010,08,21,14,17,19.40
2010,08,21,14,18,19.40
2010,08,21,14,19,19.50
2010,08,21,14,20,19.60
2010,08,21,14,21,19.80
2010,08,21,14,22,19.80
2010,08,21,14,23,19.90
2010,08,21,14,24,19.90
2010,08,21,14,25,19.90
2010,08,21,14,26,19.90
2010,08,21,14,27,20.00
2010,08,21,14,28,20.10
2010,08,21,14,29,20.20
2010,08,21,14,30,20.20
2010,08,21,14,31,20.10
2010,08,21,14,32,20.10
2010,08,21,14,33,20.10
2010,08,21,14,34,19.90
2010,08,21,14,35,19.80
2010,08,21,14,36,19.80
2010,08,21,14,37,19.80
2010,08,21,14,38,19.80
2010,08,21,14,39,19.80
2010,08,21,14,40,19.90
2010,08,21,14,41,19.90
2010,08,21,14,42,19.90
2010,08,21,14,43,19.90
2010,08,21,14,44,19.90
2010,08,21,14,45,19.90
2010,08,21,14,46,19.90
2010,08,21,14,47,19.90
2010,08,21,14,48,19.90
2010,08,21,14,49,20.10
2010,08,21,14,50,20.10
2010,08,21,14,51,20.10
2010,08,21,14,52,20.10
2010,08,21,14,53,20.00
2010,08,21,14,54,19.90
2010,08,21,14,55,19.90
2010,08,21,14,56,19.90
2010,08,21,14,57,19.90
2010,08,21,14,58,19.90
2010,08,21,14,59,19.90
2010,08,21,15,00,19.90
2010,08,21,15,01,20.00
2010,08,21,15,02,20.10
2010,08,21,15,03,20.20
2010,08,21,15,04,20.30
2010,08,21,15,05,20.50
2010,08,21,15,06,20.60
2010,08,21,15,07,20.70
2010,08,21,15,08,20.80
2010,08,21,15,09,20.90
2010,08,21,15,10,20.90
2010,08,21,15,11,21.00
2010,08,21,15,12,21.00
2010,08,21,15,13,21.00
2010,08,21,15,14,21.00
2010,08,21,15,15,21.00
2010,08,21,15,16,21.10
2010,08,21,15,17,21.20
2010,08,21,15,18,21.30
2010,08,21,15,19,21.30
2010,08,21,15,20,21.30
2010,08,21,15,21,21.40
2010,08,21,15,22,21.50
2010,08,21,15,23,21.60
2010,08,21,15,24,21.60
2010,08,21,15,25,21.60
2010,08,21,15,26,21.60
2010,08,21,15,27,21.60
2010,08,21,15,28,21.60
2010,08,21,15,29,21.60
2010,08,21,15,30,21.60
2010,08,21,15,31,21.60
2010,08,21,15,32,21.70
2010,08,21,15,33,21.60
2010,08,21,15,34,21.60
2010,08,21,15,35,21.60
2010,08,21,15,36,21.70
2010,08,21,15,37,21.80
2010,08,21,15,38,21.90
2010,08,21,15,39,22.00
2010,08,21,15,40,22.10
2010,08,21,15,41,22.20
2010,08,21,15,42,22.40
2010,08,21,15,43,22.40
2010,08,21,15,44,22.40
2010,08,21,15,45,22.50
2010,08,21,15,46,22.40
2010,08,21,15,47,22.40
2010,08,21,15,48,22.30
2010,08,21,15,49,22.10
2010,08,21,15,50,22.00
2010,08,21,15,51,21.90
2010,08,21,15,52,21.90
2010,08,21,15,53,21.80
2010,08,21,15,54,21.70
2010,08,21,15,55,21.70
2010,08,21,15,56,21.60
2010,08,21,15,57,21.60
2010,08,21,15,58,21.50
2010,08,21,15,59,21.40
2010,08,21,16,00,21.40
2010,08,21,16,01,21.40
2010,08,21,16,02,21.30
2010,08,21,16,03,21.40
2010,08,21,16,04,21.50
2010,08,21,16,05,21.60
2010,08,21,16,06,21.70
2010,08,21,16,07,21.80
2010,08,21,16,08,21.90
2010,08,21,16,09,22.10
2010,08,21,16,10,22.20
2010,08,21,16,11,22.30
2010,08,21,16,12,22.20
2010,08,21,16,13,22.30
2010,08,21,16,14,22.30
2010,08,21,16,15,22.40
2010,08,21,16,16,22.40
2010,08,21,16,17,22.50
2010,08,21,16,18,22.40
2010,08,21,16,19,22.40
2010,08,21,16,20,22.30
2010,08,21,16,21,22.30
2010,08,21,16,22,22.30
2010,08,21,16,23,22.30
2010,08,21,16,24,22.20
2010,08,21,16,25,22.20
2010,08,21,16,26,22.10
2010,08,21,16,27,22.00
2010,08,21,16,28,22.00
2010,08,21,16,29,22.00
2010,08,21,16,30,22.00
2010,08,21,16,31,22.00
2010,08,21,16,32,22.00
2010,08,21,16,33,22.00
2010,08,21,16,34,22.00
2010,08,21,16,35,22.10
2010,08,21,16,36,22.10
2010,08,21,16,37,22.20
2010,08,21,16,38,22.10
2010,08,21,16,39,22.10
2010,08,21,16,40,22.20
2010,08,21,16,41,22.20
2010,08,21,16,42,22.30
2010,08,21,16,43,22.30
2010,08,21,16,44,22.30
2010,08,21,16,45,22.30
2010,08,21,16,46,22.30
2010,08,21,16,47,22.20
2010,08,21,16,48,22.20
2010,08,21,16,49,22.20
2010,08,21,16,50,22.10
2010,08,21,16,51,22.20
2010,08,21,16,52,22.20
2010,08,21,16,53,22.30
2010,08,21,16,54,22.20
2010,08,21,16,55,22.20
2010,08,21,16,56,22.10
2010,08,21,16,57,22.10
2010,08,21,16,58,22.00
2010,08,21,16,59,21.90
2010,08,21,17,00,21.80
2010,08,21,17,01,21.60
2010,08,21,17,02,21.60
2010,08,21,17,03,21.60
2010,08,21,17,04,21.40
2010,08,21,17,05,21.30
2010,08,21,17,06,21.30
2010,08,21,17,07,21.20
2010,08,21,17,08,21.20
2010,08,21,17,09,21.10
2010,08,21,17,10,21.10
2010,08,21,17,11,21.10
2010,08,21,17,12,21.10
2010,08,21,17,13,21.10
2010,08,21,17,14,21.00
2010,08,21,17,15,21.00
2010,08,21,17,16,21.00
2010,08,21,17,17,21.10
2010,08,21,17,18,21.10
2010,08,21,17,19,21.20
2010,08,21,17,20,21.30
2010,08,21,17,21,21.30
2010,08,21,17,22,21.30
2010,08,21,17,23,21.40
2010,08,21,17,24,21.40
2010,08,21,17,25,21.40
2010,08,21,17,26,21.40
2010,08,21,17,27,21.40
2010,08,21,17,28,21.40
2010,08,21,17,29,21.30